Regional Weather Roundup
Issued by NWS

Home | Current Version | Previous Version | Graphics & Text | Print | Product List | Glossary Off
Versions: 1 2 3 4 5 6 7 8 9 10 11 12 13 14 15 16 17 18 19 20 21 22 23 24 25 26 27 28 29 30 31 32 33 34 35 36 37 38 39 40 41 42 43 44 45 46 47 48 49 50

000
ASUS43 KLSX 242007
RWRMO

WEATHER SUMMARY FOR MISSOURI
NATIONAL WEATHER SERVICE SPRINGFIELD MO
300 PM CDT SUN SEP 24 2017

NOTE: "FAIR" INDICATES FEW OR NO CLOUDS BELOW 12,000 FEET WITH NO
       SIGNIFICANT WEATHER AND/OR OBSTRUCTIONS TO VISIBILITY.
       CURRENT SKY AND/OR WEATHER CONDITIONS ARE NOT AVAILABLE FOR
       CHILLICOTHE AND FARMINGTON.

MOZ001>031-035>038-043-044-053-054-242100-
...NORTHERN AND WESTERN MISSOURI...

CITY           SKY/WX    TMP DP  RH WIND       PRES   REMARKS
KANSAS CTY INT MOSUNNY   87  68  52 S14       29.94F HX  90
KANSAS C DTWN  MOSUNNY   90  67  46 S9        29.93F HX  93
LEE`S SUMMIT   MOSUNNY   89  67  47 S13       29.96F HX  92
ST JOSEPH      MOSUNNY   88  67  49 S9        29.92F HX  91
CHILLICOTHE      N/A     89  66  46 S8        29.96F HX  91
KIRKSVILLE     MOSUNNY   90  63  40 SW9       29.98F HX  91

$$
MOZ066>068-077>081-088>096-101>105-242100-
...SOUTHWEST MISSOURI...

CITY           SKY/WX    TMP DP  RH WIND       PRES   REMARKS
SPRINGFIELD    MOSUNNY   87  65  47 S6        29.97F
JOPLIN         MOSUNNY   88  68  51 S9        29.95F HX  91
BRANSON        PTSUNNY   88  61  40 SE9       29.99F

$$
MOZ032>034-039>042-045>050-055>058-069>072-242100-
...CENTRAL MISSOURI...

CITY           SKY/WX    TMP DP  RH WIND       PRES   REMARKS
COLUMBIA       MOSUNNY   89  66  46 S7        29.98F HX  91
JEFFERSON CITY SUNNY     88  65  46 CALM      29.96F HX  90
ROLLA          MOSUNNY   87  64  46 CALM      29.99F
SEDALIA        PTSUNNY   90  69  50 S7        29.98F HX  94
WHITEMAN AFB   MOSUNNY   87  68  52 SW5       29.95F HX  90
WARRENSBURG    MOSUNNY   86  64  48 S8        29.95F
OSAGE BEACH    PTSUNNY   89  67  47 VRB7      29.98F HX  92

$$
MOZ051-052-059>065-242100-
...EAST CENTRAL MISSOURI...

CITY           SKY/WX    TMP DP  RH WIND       PRES   REMARKS
ST LOUIS INTL  MOSUNNY   90  64  42 E9        29.98F HX  91
SPIRIT OF STL  SUNNY     90  66  45 VRB6      29.96F HX  92
ST CHARLES     SUNNY     92  61  35 MISG      29.96F HX  92

$$
MOZ072>076-082>087-097>100-106>115-242100-
...SOUTH CENTRAL AND SOUTHEAST MISSOURI...

CITY           SKY/WX    TMP DP  RH WIND       PRES   REMARKS
CAPE GIRARDEAU TSTM      88  66  48 CALM      29.96F HX  90
FARMINGTON     SUNNY     90  64  42 E6        29.99F HX  91
POPLAR BLUFF   CLOUDY    86  68  54 E8        29.97S
WEST PLAINS    CLOUDY    87  62  43 SE6       30.00F

$$


USA.gov is the U.S. government's official web portal to all federal, state and local government web resources and services.